Location: Newark
(30.0333°N, 31.2167°E)
Time: 20:58:15
(UTC+00:00)

Vanguard 3 - Pass Details

Date: 25 January 2020
Orbit: 508 x 3263 km, 33.3° (Epoch: 19 February)

Event Time Altitude Azimuth Distance (km) Brightness Sun altitude
Rises 20:30:08 0° 288° (WNW) 6,854 12.2 -65.3°
Reaches altitude 10° 20:35:14 10° 287° (WNW) 5,532 11.6 -66.3°
Enters shadow 20:41:00 25° 283° (WNW) 3,971 10.7 -67.5°
